Погода в Сывдарме

Россия / Ямало-Ненецкий автономный округ     65°16′11″N   77°44′35″E
темп.,
°C
ветер,
м/с
пор.,
м/с
влажн.,
%
обл.,
%
осадки,
мм/ч
давл.,
гПа
погр.,
м
17 августа, ср
ср1723:00+9ссз81176100 0.0 1009511
02:00+8ссз81286100 0.0 1009557
05:00+7ссз81184100 0.0 1009643
08:00+7ссз7985100 0.0 1009577
11:00+8ссз668390 0.0 1010542
14:00+10ссз447673 0.0 1011635
17:00+11с4471100 0.0 1012858
20:00+10сз358194 0.0 1013118
18 августа, чт
чт1823:00+9сз358863 0.0 101494
02:00+9зсз469694 0.0 1015106
05:00+9ссз479318 0.0 1016153
08:00+13с687021 0.0 1016391
11:00+17с89545 0.0 10171157
14:00+18с910477 0.0 10181623
17:00+16с91057100 0.0 10181019
20:00+12с8126298 0.0 1019316
19 августа, пт
пт1923:00+8с712694 0.0 1019236
02:00+6с612770 0.0 1019209
05:00+6с611802 0.0 1020249
08:00+10с7961100 0.0 1020608
11:00+13с674999 0.0 1020919
14:00+15ссз664399 0.0 10191053
17:00+15сз4647100 0.0 1018688
20:00+12сз6879100 0.2 1017264
20 августа, сб
сб2023:00+12зюз5988100 0.7 1015225
02:00+13зюз61185100 0.8 1013286
05:00+12зсз5996100 2.1 1011262
08:00+11ссз81291100 0.1 1011621
11:00+10ссз91082100 0.1 1012644
14:00+9ссз81087100 0.0 1013647
17:00+8ссз71191100 0.8 1013539
20:00+8ссз71091100 0.1 1014438
21 августа, вс
вс2123:00+8с589387 0.3 1016279
02:00+8с479651 0.0 1017140
05:00+8с589686 0.0 1018172
08:00+11ссв796977 0.0 1020404
11:00+9с71081100 0.0 1022424
14:00+12с8868100 0.0 1022794
17:00+10с7977100 0.0 1024413
20:00+9с588242 0.0 1025132